Flag for Morocco Weather past 2 weeks in Rabat, Morocco

Now
66 °F

Partly sunny.


Feels Like: 66 °F
Forecast: 58 / 68 °F
Wind: 14 mph from West

Location: Rabat-Sale

Current Time: Apr 26, 2015 at 5:34:05 PM

Latest Report: Apr 26, 2015 at 5:00 PM


Visibility: 5 mi

Pressure: 30.01 "Hg

Humidity: 78%

Dew point: 59 °F

Location of RabatLocation

Historic Weather in Rabat — Graph

°F

Rabat temperature yesterday

Maximum temperature yesterday: 68 °F (at 10:30 AM)
Minimum temperature yesterday: 50 °F (at 12:00 AM)
Average temperature yesterday: 62 °F

Past Weeks' High & Low Weather Summary

 TemperatureHumidityPressure
High75 °F (Apr 12, 1:30 PM)100% (Apr 12, 5:30 AM)30.15 "Hg (Apr 12, 5:30 AM)
Low46 °F (Apr 12, 4:30 AM)39% (Apr 12, 2:00 PM)29.92 "Hg (Apr 21, 4:00 AM)
Average61 °F77%30.04 "Hg
* Reported Apr 11 4:00 PM — Apr 26 4:30 PM, Rabat, Weather by CustomWeather, © 2015

Note: Actual official high and low records may vary slightly from our data, if they occured in-between our weather recording intervals... More about our weather records

Advertising

Rabat weather history for previous 24 hours

 ConditionsComfort  
Time TempWeatherWind HumidityBarometerVisibility
4:30 PM
Sun, Apr 26
66 °FPartly sunny.17 mph73%30.01 "Hg5 mi
4:00 PM68 °FPartly sunny.20 mph73%30.01 "Hg4 mi
3:30 PM70 °FPartly sunny.22 mph64%30.01 "Hg4 mi
3:00 PM70 °FScattered clouds.20 mph64%30.01 "Hg4 mi
2:30 PM72 °FScattered clouds.17 mph61%30.01 "Hg4 mi
2:00 PM72 °FScattered clouds.20 mph57%30.01 "Hg4 mi
1:30 PM72 °FScattered clouds.23 mph57%30.01 "Hg4 mi
1:00 PM72 °FScattered clouds.21 mph53%30.01 "Hg5 mi
12:30 PM72 °FScattered clouds.20 mph53%30.01 "Hg5 mi
12:00 PM72 °FScattered clouds.16 mph57%30.01 "Hg5 mi
11:30 AM70 °FBroken clouds.21 mph60%30.01 "Hg5 mi
11:00 AM70 °FBroken clouds.17 mph60%30.01 "Hg5 mi
10:30 AM66 °FBroken clouds.17 mph68%30.01 "Hg5 mi
10:00 AM66 °FBroken clouds.15 mph68%30.01 "Hg5 mi
9:30 AM66 °FScattered clouds.15 mph68%30.01 "Hg5 mi
9:00 AM64 °FScattered clouds.12 mph73%30.01 "Hg5 mi
8:30 AM61 °FBroken clouds.9 mph83%30.01 "Hg5 mi
8:00 AM61 °FBroken clouds.8 mph83%30.01 "Hg5 mi
7:30 AM59 °FBroken clouds.7 mph88%29.98 "Hg5 mi
7:00 AM59 °FBroken clouds.5 mph88%30.01 "Hg5 mi
6:30 AM57 °FClear.7 mph94%29.98 "Hg5 mi
6:00 AM57 °FClear.7 mph94%29.98 "Hg5 mi
5:30 AM57 °FClear.6 mph94%29.98 "Hg5 mi
5:00 AM57 °FClear.7 mph94%29.98 "Hg10 mi
4:30 AM57 °FClear.6 mph94%29.98 "Hg10 mi
4:00 AM57 °FClear.7 mph94%29.98 "Hg5 mi
3:30 AM57 °FClear.5 mph94%29.98 "Hg10 mi
3:00 AM55 °FClear.3 mph94%30.01 "Hg6 mi
2:30 AM54 °FClear.1 mph94%30.01 "Hg10 mi
2:00 AM55 °FClear.2 mph94%30.01 "Hg10 mi
1:30 AM54 °FClear.1 mph94%30.01 "Hg10 mi
1:00 AM55 °FClear.No wind88%30.01 "Hg10 mi
12:30 AM55 °FClear.No wind88%30.01 "Hg10 mi
11:30 PM
Sat, Apr 25
59 °FClear.3 mph88%30.04 "Hg10 mi
11:00 PM59 °FPassing clouds.3 mph88%30.04 "HgN/A
10:00 PM61 °FClear.No wind83%30.04 "Hg5 mi
9:30 PM63 °FClear.5 mph77%30.04 "Hg5 mi
9:00 PM63 °FClear.5 mph77%30.04 "Hg5 mi
8:30 PM63 °FClear.3 mph77%30.04 "Hg5 mi
8:00 PM63 °FClear.6 mph77%30.01 "Hg5 mi
7:30 PM63 °FPartly cloudy.5 mph77%30.01 "Hg5 mi
7:00 PM64 °FBroken clouds.6 mph73%30.01 "Hg5 mi
6:30 PM64 °FBroken clouds.6 mph68%30.01 "Hg5 mi
6:00 PM64 °FPartly sunny.8 mph68%30.01 "Hg5 mi
5:30 PM66 °FPartly sunny.8 mph64%30.01 "Hg4 mi
5:00 PM68 °FPartly sunny.9 mph60%30.01 "Hg4 mi
Weather by CustomWeather, © 2015

See weather overviewHow to use our weather pages